TimeCST,TemperatureF,Dew PointF,Humidity,Sea Level PressureIn,VisibilityMPH,Wind Direction,Wind SpeedMPH,Gust SpeedMPH,PrecipitationIn,Events,Conditions,WindDirDegrees,DateUTC
12:00 AM,4,-2,63,29.80,10,North,15.0,,,Snow,Low Drifting Snow,0,2012-12-01 06:00:00
12:00 AM,3.2,-2.2,78,29.80,10.0,North,16.1,-,N/A,Snow,Low Drifting Snow,360,2012-12-01 06:00:00
1:00 AM,5.0,-4.0,66,29.76,10.0,NNW,17.3,23.0,N/A,Snow,Low Drifting Snow,340,2012-12-01 07:00:00
2:00 AM,5.0,-2.2,72,29.73,10.0,North,19.6,-,N/A,Snow,Low Drifting Snow,360,2012-12-01 08:00:00
2:24 AM,-9999,-9999,N/A,-9999,1.5,North,15.0,20.7,N/A,,Unknown,360,2012-12-01 08:24:00
3:00 AM,3.2,-2.2,78,29.70,1.5,ESE,13.8,-,N/A,Snow,Light Snow,120,2012-12-01 09:00:00
4:00 AM,5.0,-0.4,78,29.70,2.0,North,4.6,-,N/A,Snow,Light Snow,350,2012-12-01 10:00:00
5:00 AM,5.0,-2.2,72,29.67,2.0,East,4.6,-,N/A,Snow,Light Snow,80,2012-12-01 11:00:00
5:44 AM,-9999,-9999,N/A,-9999,1.0,SW,8.1,-,N/A,,Unknown,220,2012-12-01 11:44:00
6:00 AM,3,-1,76,29.69,1,SE,4.6,,,Snow,Light Snow,140,2012-12-01 12:00:00
6:00 AM,3.2,-0.4,85,29.69,1.0,ESE,6.9,-,N/A,Snow,Light Snow,110,2012-12-01 12:00:00
7:00 AM,1.4,-5.8,72,29.71,1.5,SSE,11.5,-,N/A,Snow,Light Snow,150,2012-12-01 13:00:00
8:00 AM,1.4,-5.8,72,29.71,1.5,SE,11.5,-,N/A,Snow,Light Snow,130,2012-12-01 14:00:00
9:00 AM,-0.4,-5.8,78,29.73,1.5,South,13.8,-,N/A,Snow,Light Snow,170,2012-12-01 15:00:00
10:00 AM,-2.2,-7.6,78,29.75,6.0,ESE,13.8,-,N/A,Snow,Light Snow,110,2012-12-01 16:00:00
11:00 AM,-2.2,-9.4,71,29.79,15.0,SSE,12.7,-,N/A,Snow,Light Snow,150,2012-12-01 17:00:00
12:00 PM,-1,-8,59,29.81,15,SE,6.9,,,Snow,Light Snow,130,2012-12-01 18:00:00
12:00 PM,-0.4,-7.6,72,29.81,15.0,SE,5.8,-,N/A,Snow,Light Snow,140,2012-12-01 18:00:00
12:23 PM,-9999,-9999,N/A,-9999,15.0,SSE,4.6,-,N/A,,Unknown,160,2012-12-01 18:23:00
1:00 PM,-0.4,-9.4,66,29.82,6.0,ESE,8.1,-,N/A,Snow,Ice Crystals,120,2012-12-01 19:00:00
2:00 PM,-4.0,-11.2,71,29.85,15.0,SE,10.4,-,N/A,Snow,Low Drifting Snow,140,2012-12-01 20:00:00
2:45 PM,-9999,-9999,N/A,-9999,15.0,SSE,10.4,-,N/A,,Unknown,150,2012-12-01 20:45:00
3:00 PM,-4.0,-13.0,65,29.86,15.0,SE,15.0,-,N/A,Snow,Low Drifting Snow,140,2012-12-01 21:00:00
4:00 PM,-5.8,-14.8,65,29.86,15.0,South,13.8,-,N/A,Snow,Low Drifting Snow,170,2012-12-01 22:00:00
5:00 PM,-5.8,-14.8,65,29.91,15.0,South,11.5,18.4,N/A,Snow,Low Drifting Snow,180,2012-12-01 23:00:00
6:00 PM,-7,-18,44,29.90,15,SE,8.1,,,,Partly Cloudy,130,2012-12-02 00:00:00
6:00 PM,-7.6,-16.6,65,29.90,15.0,SE,9.2,-,N/A,Snow,Low Drifting Snow,130,2012-12-02 00:00:00
7:00 PM,-9.4,-16.6,71,29.90,15.0,SSE,17.3,-,N/A,Snow,Low Drifting Snow,150,2012-12-02 01:00:00
8:00 PM,-7.6,-18.4,59,29.93,15.0,SE,16.1,-,N/A,Snow,Low Drifting Snow,140,2012-12-02 02:00:00
9:00 PM,-9.4,-18.4,65,29.93,15.0,SSE,13.8,-,N/A,Snow,Low Drifting Snow,160,2012-12-02 03:00:00